This is the latest recevied weather packets stored in our database for station/object WK7G. If no packets are shown the sender has not sent any weather packets the latest 10 day(s).
| Time | Temp. | Humidity | Pressure | Rain* | Wind** | Luminosity | Snow |
|---|---|---|---|---|---|---|---|
| 1777739507 | 15.56° C | 31% | 1014.6 hPa | 0 mm | - | 772 W/m² | - |
| 1777739204 | 15.56° C | 36% | 1014.7 hPa | 0 mm | - | 764 W/m² | - |
| 1777738901 | 16.67° C | 31% | 1014.7 hPa | 0 mm | - | 769 W/m² | - |
| 1777738598 | 16.67° C | 32% | 1014.9 hPa | 0 mm | - | 711 W/m² | - |
| 1777738295 | 16.11° C | 32% | 1014.7 hPa | 0 mm | - | 652 W/m² | - |
| 1777737993 | 16.11° C | 33% | 1014.7 hPa | 0 mm | - | 675 W/m² | - |
| 1777737691 | 15° C | 32% | 1014.6 hPa | 0 mm | - | 659 W/m² | - |
| 1777737390 | 15.56° C | 31% | 1014.6 hPa | 0 mm | - | 597 W/m² | - |
| 1777737086 | 16.67° C | 33% | 1014.8 hPa | 0 mm | - | 540 W/m² | - |
| 1777736782 | 16.11° C | 30% | 1014.8 hPa | 0 mm | - | 525 W/m² | - |
| 1777736154 | 15° C | 33% | 1014.7 hPa | 0 mm | - | 462 W/m² | - |
| 1777735851 | 15.56° C | 32% | 1014.7 hPa | 0 mm | - | 481 W/m² | - |
| 1777735548 | 15° C | 33% | 1014.7 hPa | 0 mm | - | 478 W/m² | - |
| 1777735245 | 15° C | 33% | 1014.9 hPa | 0 mm | - | 476 W/m² | - |
| 1777734943 | 14.44° C | 33% | 1014.5 hPa | 0 mm | - | 427 W/m² | - |
| 1777734640 | 13.89° C | 35% | 1014.9 hPa | 0 mm | - | 424 W/m² | - |
| 1777734338 | 13.33° C | 35% | 1014.8 hPa | 0 mm | - | 358 W/m² | - |
| 1777734033 | 13.33° C | 35% | 1014.8 hPa | 0 mm | - | 363 W/m² | - |
| 1777733730 | 12.78° C | 35% | 1014.9 hPa | 0 mm | - | 350 W/m² | - |
| 1777733427 | 12.78° C | 37% | 1014.8 hPa | 0 mm | - | 360 W/m² | - |
| 1777733123 | 11.67° C | 36% | 1014.8 hPa | 0 mm | - | 341 W/m² | - |
| 1777732820 | 11.67° C | 37% | 1014.9 hPa | 0 mm | - | 324 W/m² | - |
| 1777732516 | 11.67° C | 40% | 1015.1 hPa | 0 mm | - | 295 W/m² | - |
| 1777732214 | 10.56° C | 41% | 1014.9 hPa | 0 mm | - | 273 W/m² | - |
| 1777731911 | 10.56° C | 41% | 1015.3 hPa | 0 mm | - | 260 W/m² | - |
* Rain latest hour (hover to see other rain measurements)
** Current wind speed in m/s (hover to see current wind gust speed)